QFA186 NZQN-YBBN

Flight info

Callsign QFA186
Flight time N/A
Altitude 39000
Route LIBLA P880 MISLY T53 GOMOL
Aircraft A21N/M-SDE2E3FGHIRWXY/LB1

Departure

Time N/A
Airport Queenstown Airport (NZQN)

Arrival

Time 2026-05-06 04:07
Airport Brisbane International Airport (YBBN)
Time Latitude Longitude Altitude Speed Heading
2026-05-06 02:12 -37.46744 161.21276 39047 ft 410 kts 324°
2026-05-06 02:12 -37.44396 161.19199 39041 ft 411 kts 323°
2026-05-06 02:13 -37.39723 161.15068 39042 ft 413 kts 324°
2026-05-06 02:13 -37.35011 161.10910 39025 ft 413 kts 324°
2026-05-06 02:14 -37.30297 161.06757 39042 ft 413 kts 323°
2026-05-06 02:14 -37.25607 161.02633 39043 ft 413 kts 323°
2026-05-06 02:15 -37.20884 160.98485 39045 ft 413 kts 323°
2026-05-06 02:15 -37.16183 160.94363 39045 ft 413 kts 324°
2026-05-06 02:16 -37.11482 160.90247 39045 ft 413 kts 324°
2026-05-06 02:16 -37.06755 160.86115 39044 ft 414 kts 323°
2026-05-06 02:17 -37.02016 160.81979 39053 ft 415 kts 323°
2026-05-06 02:17 -36.97288 160.77858 39053 ft 415 kts 323°
2026-05-06 02:18 -36.92565 160.73748 39056 ft 415 kts 323°
2026-05-06 02:18 -36.87846 160.69648 39056 ft 415 kts 323°
2026-05-06 02:19 -36.83090 160.65523 39056 ft 415 kts 323°
2026-05-06 02:19 -36.78349 160.61416 39056 ft 415 kts 323°
2026-05-06 02:20 -36.71253 160.55282 39056 ft 415 kts 323°
2026-05-06 02:21 -36.66499 160.51181 39059 ft 415 kts 323°
2026-05-06 02:21 -36.61764 160.47101 39061 ft 415 kts 323°
2026-05-06 02:22 -36.57010 160.43010 39059 ft 415 kts 323°
2026-05-06 02:22 -36.52245 160.38918 39057 ft 415 kts 323°
2026-05-06 02:23 -36.47511 160.34858 39059 ft 415 kts 323°
2026-05-06 02:23 -36.42745 160.30778 39066 ft 415 kts 323°
2026-05-06 02:24 -36.37980 160.26704 39066 ft 415 kts 323°
2026-05-06 02:24 -36.33243 160.22660 39063 ft 415 kts 323°
2026-05-06 02:25 -36.28466 160.18588 39074 ft 415 kts 323°
2026-05-06 02:25 -36.23707 160.14539 39067 ft 415 kts 323°
2026-05-06 02:26 -36.18939 160.10486 39069 ft 415 kts 323°
2026-05-06 02:26 -36.14200 160.06464 39069 ft 415 kts 323°
2026-05-06 02:27 -36.09453 160.02442 39069 ft 415 kts 323°
2026-05-06 02:27 -36.04686 159.98409 39072 ft 415 kts 323°
2026-05-06 02:28 -35.99913 159.94377 39069 ft 415 kts 323°
2026-05-06 02:28 -35.95159 159.90367 39072 ft 415 kts 322°
2026-05-06 02:29 -35.90383 159.86345 39079 ft 415 kts 322°
2026-05-06 02:29 -35.85611 159.82332 39069 ft 414 kts 322°
2026-05-06 02:30 -35.80884 159.78362 39074 ft 413 kts 322°
2026-05-06 02:30 -35.76119 159.74366 39074 ft 413 kts 322°
2026-05-06 02:31 -35.71392 159.70408 39060 ft 413 kts 322°
2026-05-06 02:31 -35.66623 159.66421 39072 ft 413 kts 322°
2026-05-06 02:32 -35.61866 159.62449 39078 ft 413 kts 322°
2026-05-06 02:32 -35.57131 159.58502 39077 ft 413 kts 322°
2026-05-06 02:33 -35.52365 159.54535 39075 ft 413 kts 322°
2026-05-06 02:33 -35.50785 159.53221 39075 ft 413 kts 322°
2026-05-06 02:34 -35.42833 159.46618 39069 ft 413 kts 322°
2026-05-06 02:34 -35.38106 159.42700 39078 ft 413 kts 322°
2026-05-06 02:35 -35.33327 159.38745 39079 ft 413 kts 322°
2026-05-06 02:35 -35.28588 159.34829 39078 ft 413 kts 322°
2026-05-06 02:36 -35.23812 159.30887 39080 ft 413 kts 322°
2026-05-06 02:36 -35.19069 159.26979 39080 ft 413 kts 322°
2026-05-06 02:37 -35.14285 159.23043 39073 ft 413 kts 322°
2026-05-06 02:37 -35.09516 159.19126 39084 ft 413 kts 322°
2026-05-06 02:38 -35.04765 159.15228 39082 ft 413 kts 322°
2026-05-06 02:38 -34.99981 159.11309 39080 ft 413 kts 322°
2026-05-06 02:39 -34.95191 159.07392 39080 ft 413 kts 322°
2026-05-06 02:39 -34.90432 159.03506 39080 ft 413 kts 322°
2026-05-06 02:40 -34.85652 158.99608 39079 ft 413 kts 322°
2026-05-06 02:40 -34.80890 158.95730 39080 ft 413 kts 322°
2026-05-06 02:41 -34.76106 158.91839 39084 ft 413 kts 322°
2026-05-06 02:41 -34.71326 158.87958 39080 ft 413 kts 322°
2026-05-06 02:42 -34.66544 158.84080 39087 ft 413 kts 322°
2026-05-06 02:42 -34.61751 158.80198 39086 ft 414 kts 322°
2026-05-06 02:43 -34.57012 158.76366 39082 ft 413 kts 322°
2026-05-06 02:43 -34.52219 158.72497 39092 ft 412 kts 322°
2026-05-06 02:44 -34.47489 158.68683 39085 ft 412 kts 322°
2026-05-06 02:44 -34.42705 158.64830 39087 ft 412 kts 322°
2026-05-06 02:45 -34.37943 158.61000 39088 ft 412 kts 322°
2026-05-06 02:45 -34.33170 158.57167 39090 ft 412 kts 322°
2026-05-06 02:46 -34.28391 158.53335 39086 ft 412 kts 322°
2026-05-06 02:46 -34.23601 158.49500 39091 ft 411 kts 322°
2026-05-06 02:47 -34.18848 158.45699 39091 ft 411 kts 322°
2026-05-06 02:47 -34.14063 158.41878 39091 ft 411 kts 322°
2026-05-06 02:48 -34.09321 158.38096 39091 ft 411 kts 322°
2026-05-06 02:48 -34.04532 158.34282 39091 ft 411 kts 322°
2026-05-06 02:49 -33.99772 158.30496 39091 ft 411 kts 322°
2026-05-06 02:49 -33.94982 158.26692 39091 ft 411 kts 322°
2026-05-06 02:50 -33.90217 158.22912 39091 ft 411 kts 322°
2026-05-06 02:50 -33.85423 158.19115 39097 ft 411 kts 322°
2026-05-06 02:51 -33.80643 158.15335 39092 ft 411 kts 322°
2026-05-06 02:51 -33.75895 158.11584 39090 ft 411 kts 322°
2026-05-06 02:52 -33.71100 158.07802 39090 ft 410 kts 322°
2026-05-06 02:52 -33.66358 158.04067 39092 ft 410 kts 322°
2026-05-06 02:53 -33.62385 158.00940 39089 ft 410 kts 322°
2026-05-06 02:53 -33.57604 157.97183 39089 ft 410 kts 322°
2026-05-06 02:54 -33.52050 157.92825 39092 ft 410 kts 322°
2026-05-06 02:54 -33.48079 157.89713 39091 ft 410 kts 322°
2026-05-06 02:55 -33.43298 157.85971 39090 ft 410 kts 321°
2026-05-06 02:55 -33.38523 157.82240 39087 ft 409 kts 321°
2026-05-06 02:56 -33.33759 157.78521 39090 ft 409 kts 321°
2026-05-06 02:56 -33.29020 157.74826 39094 ft 408 kts 321°
2026-05-06 02:57 -33.24242 157.71106 39084 ft 408 kts 322°
2026-05-06 02:57 -33.19501 157.67420 39085 ft 409 kts 322°
2026-05-06 02:58 -33.14727 157.63713 39084 ft 408 kts 321°
2026-05-06 02:58 -33.09957 157.60014 39089 ft 408 kts 321°
2026-05-06 02:59 -33.05227 157.56351 39087 ft 408 kts 321°
2026-05-06 02:59 -33.00459 157.52663 39096 ft 408 kts 321°
2026-05-06 03:00 -32.95692 157.48981 39095 ft 408 kts 321°
2026-05-06 03:00 -32.90947 157.45321 39089 ft 408 kts 321°
2026-05-06 03:01 -32.86168 157.41639 39080 ft 408 kts 321°
2026-05-06 03:01 -32.81417 157.37984 39091 ft 408 kts 321°
2026-05-06 03:02 -32.76646 157.34317 39092 ft 408 kts 321°
2026-05-06 03:02 -32.71899 157.30674 39091 ft 408 kts 321°
2026-05-06 03:03 -32.67125 157.27015 39099 ft 408 kts 321°
2026-05-06 03:03 -32.62346 157.23357 39097 ft 408 kts 321°
2026-05-06 03:04 -32.57575 157.19711 39079 ft 407 kts 321°
2026-05-06 03:04 -32.52851 157.16106 39097 ft 405 kts 320°
2026-05-06 03:05 -32.48090 157.12475 39096 ft 405 kts 320°
2026-05-06 03:05 -32.43367 157.08876 39097 ft 405 kts 320°
2026-05-06 03:06 -32.38632 157.05275 39098 ft 405 kts 321°
2026-05-06 03:06 -32.33878 157.01663 39096 ft 405 kts 321°
2026-05-06 03:07 -32.29126 156.98058 39061 ft 405 kts 321°
2026-05-06 03:07 -32.24401 156.94479 39094 ft 405 kts 320°
2026-05-06 03:08 -32.19650 156.90883 39102 ft 404 kts 320°
2026-05-06 03:08 -32.14933 156.87319 39098 ft 403 kts 320°
2026-05-06 03:09 -32.10210 156.83754 39092 ft 402 kts 320°
2026-05-06 03:09 -32.05485 156.80191 39094 ft 402 kts 320°
2026-05-06 03:10 -32.00763 156.76636 39097 ft 402 kts 320°
2026-05-06 03:10 -31.96060 156.73099 39095 ft 402 kts 320°
2026-05-06 03:11 -31.91366 156.69572 39097 ft 401 kts 320°
2026-05-06 03:11 -31.86649 156.66033 39094 ft 401 kts 320°
2026-05-06 03:12 -31.81925 156.62493 39097 ft 402 kts 320°
2026-05-06 03:12 -31.77234 156.58983 39097 ft 401 kts 320°
2026-05-06 03:13 -31.72508 156.55451 39100 ft 401 kts 320°
2026-05-06 03:13 -31.67803 156.51939 39091 ft 400 kts 320°
2026-05-06 03:14 -31.63108 156.48439 39097 ft 399 kts 320°
2026-05-06 03:14 -31.58436 156.44958 39099 ft 399 kts 320°
2026-05-06 03:15 -31.53736 156.41461 39097 ft 399 kts 320°
2026-05-06 03:15 -31.49035 156.37969 39094 ft 399 kts 320°
2026-05-06 03:16 -31.44361 156.34501 39101 ft 399 kts 320°
2026-05-06 03:16 -31.39685 156.31035 39079 ft 399 kts 320°
2026-05-06 03:17 -31.34989 156.27560 39096 ft 398 kts 320°
2026-05-06 03:17 -31.30299 156.24093 39102 ft 397 kts 319°
2026-05-06 03:18 -31.25649 156.20659 39099 ft 396 kts 319°
2026-05-06 03:18 -31.21012 156.17238 39099 ft 396 kts 319°
2026-05-06 03:19 -31.16342 156.13797 39097 ft 396 kts 319°
2026-05-06 03:19 -31.11679 156.10365 39099 ft 396 kts 319°
2026-05-06 03:20 -31.04707 156.05242 39099 ft 396 kts 320°
2026-05-06 03:20 -31.00062 156.01833 39097 ft 396 kts 320°
2026-05-06 03:21 -30.95396 155.98414 39099 ft 396 kts 320°
2026-05-06 03:21 -30.90748 155.95011 39097 ft 396 kts 320°
2026-05-06 03:22 -30.86081 155.91599 39099 ft 395 kts 319°
2026-05-06 03:22 -30.81572 155.88007 39100 ft 389 kts 315°
2026-05-06 03:23 -30.77328 155.84151 39095 ft 387 kts 314°
2026-05-06 03:23 -30.73152 155.80267 39097 ft 385 kts 314°
2026-05-06 03:24 -30.68962 155.76363 39097 ft 385 kts 314°
2026-05-06 03:24 -30.64788 155.72489 39099 ft 386 kts 314°
2026-05-06 03:25 -30.60582 155.68599 39100 ft 386 kts 314°
2026-05-06 03:25 -30.56401 155.64737 39099 ft 386 kts 314°
2026-05-06 03:26 -30.52183 155.60846 39094 ft 385 kts 314°
2026-05-06 03:26 -30.48008 155.56999 39082 ft 384 kts 314°
2026-05-06 03:27 -30.43815 155.53140 39096 ft 383 kts 314°
2026-05-06 03:27 -30.39666 155.49323 39100 ft 383 kts 314°
2026-05-06 03:28 -30.35481 155.45477 39100 ft 383 kts 314°
2026-05-06 03:28 -30.31332 155.41670 39100 ft 383 kts 314°
2026-05-06 03:29 -30.27142 155.37830 39102 ft 383 kts 314°
2026-05-06 03:29 -30.22989 155.34028 39102 ft 383 kts 314°
2026-05-06 03:30 -30.18811 155.30208 39102 ft 383 kts 314°
2026-05-06 03:30 -30.14627 155.26386 39097 ft 382 kts 314°
2026-05-06 03:31 -30.10460 155.22585 39101 ft 381 kts 314°
2026-05-06 03:31 -30.06292 155.18786 39100 ft 381 kts 314°
2026-05-06 03:32 -30.02144 155.15009 39099 ft 381 kts 314°
2026-05-06 03:32 -29.97976 155.11219 39108 ft 381 kts 314°
2026-05-06 03:33 -29.93801 155.07425 39095 ft 381 kts 314°
2026-05-06 03:33 -29.89642 155.03652 39095 ft 381 kts 314°
2026-05-06 03:34 -29.85470 154.99870 39078 ft 381 kts 314°
2026-05-06 03:34 -29.81316 154.96109 39097 ft 380 kts 314°
2026-05-06 03:35 -29.77157 154.92349 39101 ft 379 kts 314°
2026-05-06 03:35 -29.73003 154.88595 39098 ft 379 kts 314°
2026-05-06 03:36 -29.68843 154.84839 39100 ft 379 kts 314°
2026-05-06 03:36 -29.64708 154.81111 39109 ft 379 kts 314°
2026-05-06 03:37 -29.60543 154.77360 39096 ft 379 kts 314°
2026-05-06 03:37 -29.56389 154.73626 38937 ft 374 kts 314°
2026-05-06 03:38 -29.54364 154.71811 38714 ft 372 kts 314°
2026-05-06 03:38 -29.52319 154.69974 38388 ft 372 kts 314°
2026-05-06 03:38 -29.50281 154.68142 38114 ft 372 kts 314°
2026-05-06 03:38 -29.48238 154.66305 37865 ft 372 kts 314°
2026-05-06 03:39 -29.46220 154.64494 37605 ft 370 kts 314°
2026-05-06 03:39 -29.44211 154.62698 37284 ft 359 kts 314°
2026-05-06 03:39 -29.42256 154.60951 36839 ft 352 kts 314°
2026-05-06 03:39 -29.40338 154.59234 36397 ft 348 kts 314°
2026-05-06 03:40 -29.38441 154.57532 35939 ft 352 kts 315°
2026-05-06 03:40 -29.36501 154.55790 35443 ft 355 kts 315°
2026-05-06 03:40 -29.34541 154.54034 34917 ft 359 kts 315°
2026-05-06 03:40 -29.32559 154.52260 34401 ft 362 kts 316°
2026-05-06 03:41 -29.30579 154.50491 33834 ft 366 kts 316°
2026-05-06 03:41 -29.28564 154.48691 33253 ft 369 kts 316°
2026-05-06 03:41 -29.26519 154.46867 32689 ft 372 kts 317°
2026-05-06 03:41 -29.24461 154.45033 32104 ft 375 kts 317°
2026-05-06 03:42 -29.22394 154.43191 31478 ft 378 kts 317°
2026-05-06 03:42 -29.20332 154.41354 30843 ft 381 kts 317°
2026-05-06 03:42 -29.18228 154.39481 30219 ft 384 kts 317°
2026-05-06 03:42 -29.16800 154.38209 29713 ft 386 kts 317°
2026-05-06 03:43 -29.14694 154.36336 29014 ft 390 kts 317°
2026-05-06 03:43 -29.12537 154.34418 28305 ft 394 kts 318°
2026-05-06 03:43 -29.10359 154.32483 27534 ft 397 kts 318°
2026-05-06 03:43 -29.08160 154.30530 26760 ft 401 kts 318°
2026-05-06 03:44 -29.05938 154.28557 25964 ft 406 kts 319°
2026-05-06 03:44 -29.03721 154.26591 25211 ft 412 kts 319°
2026-05-06 03:44 -29.01405 154.24534 24956 ft 431 kts 319°
2026-05-06 03:44 -28.98997 154.22399 24729 ft 439 kts 319°
2026-05-06 03:45 -28.96565 154.20247 24498 ft 442 kts 319°
2026-05-06 03:45 -28.94152 154.18115 24274 ft 444 kts 319°
2026-05-06 03:45 -28.91704 154.15951 24049 ft 444 kts 319°
2026-05-06 03:45 -28.89255 154.13788 23805 ft 444 kts 319°
2026-05-06 03:46 -28.86812 154.11631 23565 ft 443 kts 320°
2026-05-06 03:46 -28.84396 154.09498 23300 ft 442 kts 320°
2026-05-06 03:46 -28.81961 154.07351 23042 ft 441 kts 320°
2026-05-06 03:46 -28.79535 154.05212 22772 ft 439 kts 320°
2026-05-06 03:47 -28.77147 154.03107 22510 ft 438 kts 320°
2026-05-06 03:47 -28.74728 154.00976 22258 ft 437 kts 320°
2026-05-06 03:47 -28.72324 153.98860 22008 ft 436 kts 320°
2026-05-06 03:47 -28.69919 153.96745 21752 ft 434 kts 320°
2026-05-06 03:48 -28.67527 153.94642 21499 ft 433 kts 320°
2026-05-06 03:48 -28.65170 153.92571 21257 ft 431 kts 320°
2026-05-06 03:48 -28.62784 153.90476 21003 ft 430 kts 320°
2026-05-06 03:48 -28.60420 153.88402 20758 ft 429 kts 320°
2026-05-06 03:49 -28.58053 153.86325 20517 ft 427 kts 320°
2026-05-06 03:49 -28.55702 153.84264 20258 ft 426 kts 320°
2026-05-06 03:49 -28.53391 153.82239 20014 ft 424 kts 320°
2026-05-06 03:49 -28.51058 153.80197 19788 ft 422 kts 320°
2026-05-06 03:50 -28.48732 153.78162 19562 ft 421 kts 320°
2026-05-06 03:50 -28.46415 153.76135 19324 ft 420 kts 320°
2026-05-06 03:50 -28.44099 153.74110 19096 ft 418 kts 320°
2026-05-06 03:50 -28.41790 153.72092 18867 ft 418 kts 321°
2026-05-06 03:51 -28.39488 153.70083 18636 ft 417 kts 321°
2026-05-06 03:51 -28.37212 153.68096 18407 ft 416 kts 321°
2026-05-06 03:51 -28.34922 153.66100 18090 ft 409 kts 321°
2026-05-06 03:51 -28.32714 153.64177 17528 ft 390 kts 321°
2026-05-06 03:52 -28.30607 153.62342 16916 ft 384 kts 321°
2026-05-06 03:52 -28.28475 153.60484 16299 ft 386 kts 321°
2026-05-06 03:52 -28.26332 153.58618 15666 ft 386 kts 321°
2026-05-06 03:52 -28.24225 153.56784 15052 ft 385 kts 321°
2026-05-06 03:53 -28.22101 153.54937 14433 ft 384 kts 321°
2026-05-06 03:53 -28.19975 153.53090 13807 ft 383 kts 321°
2026-05-06 03:53 -28.17846 153.51288 13139 ft 381 kts 324°
2026-05-06 03:53 -28.15541 153.49872 12462 ft 380 kts 335°
2026-05-06 03:54 -28.13090 153.48776 11832 ft 371 kts 338°
2026-05-06 03:54 -28.10726 153.47602 11256 ft 378 kts 330°
2026-05-06 03:54 -28.08403 153.46079 10993 ft 387 kts 327°
2026-05-06 03:54 -28.06112 153.44486 10741 ft 379 kts 327°
2026-05-06 03:55 -28.03994 153.42985 10496 ft 349 kts 326°
2026-05-06 03:55 -28.02010 153.41566 10332 ft 323 kts 326°
2026-05-06 03:55 -28.00176 153.40250 10212 ft 301 kts 326°
2026-05-06 03:55 -27.98459 153.39012 10086 ft 285 kts 326°
2026-05-06 03:56 -27.96795 153.37811 9970 ft 282 kts 326°
2026-05-06 03:56 -27.95148 153.36619 9840 ft 279 kts 326°
2026-05-06 03:56 -27.93533 153.35450 9703 ft 280 kts 326°
2026-05-06 03:56 -27.91884 153.34259 9555 ft 280 kts 325°
2026-05-06 03:57 -27.90243 153.33074 9314 ft 279 kts 326°
2026-05-06 03:57 -27.88606 153.31893 9061 ft 279 kts 326°
2026-05-06 03:57 -27.86989 153.30727 8805 ft 278 kts 325°
2026-05-06 03:57 -27.85360 153.29551 8555 ft 277 kts 326°
2026-05-06 03:58 -27.83731 153.28376 8304 ft 277 kts 326°
2026-05-06 03:58 -27.82104 153.27204 8063 ft 273 kts 326°
2026-05-06 03:58 -27.80536 153.26075 7873 ft 261 kts 326°
2026-05-06 03:58 -27.79044 153.25001 7573 ft 256 kts 326°
2026-05-06 03:59 -27.77542 153.23919 7249 ft 256 kts 326°
2026-05-06 03:59 -27.76037 153.22836 6916 ft 255 kts 326°
2026-05-06 03:59 -27.74538 153.21757 6589 ft 256 kts 327°
2026-05-06 03:59 -27.73052 153.20687 6240 ft 256 kts 327°
2026-05-06 04:00 -27.71551 153.19609 5907 ft 255 kts 327°
2026-05-06 04:00 -27.70049 153.18529 5583 ft 254 kts 327°
2026-05-06 04:00 -27.68555 153.17455 5249 ft 254 kts 327°
2026-05-06 04:00 -27.67065 153.16385 4929 ft 253 kts 327°
2026-05-06 04:01 -27.65595 153.15330 4588 ft 253 kts 327°
2026-05-06 04:01 -27.64108 153.14262 4269 ft 253 kts 327°
2026-05-06 04:01 -27.62610 153.13188 3937 ft 255 kts 327°
2026-05-06 04:01 -27.61114 153.12114 3612 ft 254 kts 327°
2026-05-06 04:02 -27.59622 153.11044 3284 ft 253 kts 327°
2026-05-06 04:02 -27.58129 153.09974 2954 ft 254 kts 328°
2026-05-06 04:02 -27.56658 153.08919 2637 ft 255 kts 328°
2026-05-06 04:02 -27.55148 153.07839 2497 ft 249 kts 328°
2026-05-06 04:03 -27.53739 153.06831 2484 ft 230 kts 328°
2026-05-06 04:03 -27.52351 153.06124 2472 ft 209 kts 351°
2026-05-06 04:03 -27.50951 153.06101 2341 ft 194 kts 10°
2026-05-06 04:03 -27.49697 153.06435 2093 ft 177 kts 26°
2026-05-06 04:04 -27.48651 153.07016 1839 ft 160 kts 31°
2026-05-06 04:04 -27.47717 153.07558 1629 ft 146 kts 31°
2026-05-06 04:04 -27.46841 153.08058 1436 ft 137 kts 31°
2026-05-06 04:04 -27.46016 153.08529 1270 ft 130 kts 31°
2026-05-06 04:05 -27.45221 153.08986 1120 ft 127 kts 32°
2026-05-06 04:05 -27.44447 153.09431 949 ft 125 kts 30°
2026-05-06 04:05 -27.43673 153.09876 787 ft 125 kts 31°
2026-05-06 04:05 -27.42895 153.10323 632 ft 125 kts 33°
2026-05-06 04:06 -27.42127 153.10769 460 ft 122 kts 32°
2026-05-06 04:06 -27.41374 153.11200 253 ft 124 kts 28°
2026-05-06 04:06 -27.40605 153.11640 100 ft 126 kts 33°
2026-05-06 04:06 -27.39831 153.12089 33 ft 121 kts 31°
2026-05-06 04:07 -27.39147 153.12473 23 ft 93 kts 26°
2026-05-06 04:07 -27.38729 153.12655 21 ft 37 kts
2026-05-06 04:07 -27.38506 153.12653 22 ft 32 kts 358°
2026-05-06 04:07 -27.38336 153.12541 21 ft 30 kts 312°
2026-05-06 04:08 -27.38282 153.12322 21 ft 30 kts 259°
2026-05-06 04:08 -27.38288 153.12290 21 ft 0 kts 259°